New York, NY (10015)

11:29 PM EDT on July 04, 2015 (GMT -0400)
New York Downtown Manhattan/w | | Change Station
CLOSE
Current Station
Airport
Location: New York Downtown Manhattan/w,
Elevation: 7 ft
Nearby Weather Stations

Elev 7 ft 40.70 °N, 74.01 °W | Updated 14 minutes ago

Overcast
Overcast
72 °F
Feels Like 72 °F
N
4
Wind Variable Wind from SSW

Today
High -- | Low -- °F
--% Chance of Precip.
Yesterday
High -- | Low -- °F
Precip. -- in
5:30 AM 8:30 PM
Waning Gibbous, 88% visible
Pressure 30.02 in
Visibility 10.0 miles
Clouds Overcast 4400 ft
Dew Point 61 °F
Humidity 69%
Rainfall 0.00 in
Snow Depth Not available.
UV 0 out of 12
Pollen .60 out of 12
Air Quality Not available.
Flu Activity Not available.
METAR KJRB 050315Z AUTO 21003KT 10SM OVC044 22/16 A3002 RMK AO1

More Conditions Fewer Conditions

Pressure 30.02 in
Visibility 10.0 miles
Clouds Overcast 4400 ft
Dew Point 61 °F
Humidity 69%
Rainfall 0.00 in
Snow Depth Not available.
UV 0 out of 12
Pollen .60 out of 12
Air Quality Not available.
Flu Activity Not available.
METAR KJRB 050315Z AUTO 21003KT 10SM OVC044 22/16 A3002 RMK AO1

More Conditions Fewer Conditions

10-Day Weather Forecast

×

Almanac

Astronomy

Jul. 04, 2015 Rise Set
Actual Time
Civil Twilight
Nautical Twilight
Astronomical Twilight
Moon
Length of Visible Light
Length of Day
Tomorrow will be .
, % of the Moon is Illuminated

Today's Extremes

State Highs State Lows

Community

WunderPhotos

Upload Photos

1,835,182 photos uploaded!

WunderBlogs® & News

Nearby

Air Quality

  Air Quality AQ Index Pollutant
Not available.

Snow Depth

Station Depth Elevation

Earthquake Activity

City Distance Mag. Time & Date
Minimum magnitude displayed is 2.5.

Coastal Water Temperatures

Place Temperature

Stations

Nearby Weather Stations

Station Location Temp. Windchill Dew Point Humidity Wind Precip. Elev Updated Type